Simultaneous Nadir Overpasses (SNOs) Predictions

Prediction of SNOs between AQUA and NPP Satellite Orbit:

Table of predicted SNOs for the next 14.0 days since TLE Epoch: 8/10/2013
Index Date (AQUA) Time (AQUA) Lat,Lon (AQUA) SZA (AQUA ) Date (NPP) Time (NPP) Lat,Lon (NPP) SZA (NPP ) Distance(km) Time Diff (sec)
1 08/12/2013 06:22:16 75.04, -39.22 83.99 08/12/2013 06:22:02 75.03, -39.29 84.02 2.23 14
2 08/12/2013 07:11:16 -76.40, 132.42 97.58 08/12/2013 07:12:18 -76.40, 132.49 97.65 2.08 62
3 08/14/2013 21:49:35 -74.24, -92.96 94.36 08/14/2013 21:48:33 -74.23, -93.01 94.29 1.68 62
4 08/14/2013 22:38:31 75.72, 78.56 83.98 08/14/2013 22:38:46 75.72, 78.59 83.96 0.97 15
5 08/17/2013 14:05:46 -75.07, 24.99 94.49 08/17/2013 14:05:13 -75.08, 25.08 94.49 2.60 33
6 08/17/2013 14:54:52 76.03,-164.63 84.43 08/17/2013 14:55:37 76.03,-164.62 84.39 0.19 45
7 08/20/2013 05:36:59 61.07, -45.31 100.73 08/20/2013 05:35:46 61.26, -46.43 101.00 63.65 73
8 08/20/2013 06:22:14 -75.08, 140.88 93.67 08/20/2013 06:22:12 -75.07, 140.79 93.65 2.82 2
9 08/20/2013 07:10:11 79.13, -35.36 81.32 08/20/2013 07:11:25 78.96, -34.82 81.23 21.75 74
10 08/22/2013 21:49:30 74.24, 87.06 88.09 08/22/2013 21:48:42 74.23, 86.97 88.16 2.82 48




NCC Satellite Simultaneous Nadir Overpasses (SNOs) Prediction Service
